Flag for U.S.A. Weather past 2 weeks in Carson City, Nevada, U.S.A.

Now
43 °F

Partly cloudy.


Feels Like: 43 °F
Forecast: 32 / 50 °F
Wind: No wind

Location: Reno Tahoe International Airport

Current Time: Jan 30, 2015 at 5:05:30 AM

Latest Report: Jan 30, 2015 at 3:55 AM


Visibility: 10 mi

Pressure: 30.10 "Hg

Humidity: 68%

Dew point: 33 °F

Location of Carson CityLocation

Historic Weather in Carson City — Graph

°F

Carson City temperature yesterday

Maximum temperature yesterday: 56 °F (at 1:55 PM)
Minimum temperature yesterday: 30 °F (at 4:55 AM)
Average temperature yesterday: 43 °F

Past Weeks' High & Low Weather Summary

 TemperatureHumidityPressure
High63 °F (Jan 18, 12:55 PM)96% (Jan 17, 6:55 AM)30.60 "Hg (Jan 17, 6:55 AM)
Low24 °F (Jan 22, 5:55 AM)23% (Jan 18, 12:55 PM)30.00 "Hg (Jan 27, 2:55 AM)
Average42 °F59%30.28 "Hg
* Reported Jan 15 3:55 AM — Jan 30 3:55 AM, Carson City, Weather by CustomWeather, © 2014

Note: Actual official high and low records may vary slightly from our data, if they occured in-between our weather recording intervals... More about our weather records

Advertising

Carson City weather history for previous 24 hours

 ConditionsComfort  
Time TempWeatherWind HumidityBarometerVisibility
3:55 AM
Jan 30
43 °FPartly cloudy.No wind68%30.10 "Hg10 mi
2:55 AM43 °FPartly cloudy.3 mph68%30.10 "Hg10 mi
1:55 AM44 °FPassing clouds.No wind65%30.11 "Hg10 mi
12:55 AM44 °FPartly cloudy.5 mph65%30.12 "Hg10 mi
11:55 PM
Jan 29
46 °FPassing clouds.No wind63%30.13 "Hg10 mi
10:55 PM45 °FPassing clouds.3 mph65%30.15 "Hg10 mi
9:55 PM48 °FPassing clouds.7 mph59%30.15 "Hg10 mi
8:55 PM48 °FPassing clouds.3 mph59%30.17 "Hg10 mi
7:55 PM50 °FPassing clouds.6 mph54%30.17 "Hg10 mi
6:55 PM50 °FPassing clouds.No wind54%30.17 "Hg10 mi
5:55 PM50 °FPartly cloudy.8 mph54%30.17 "Hg10 mi
4:55 PM52 °FPartly sunny.9 mph49%30.14 "Hg10 mi
3:55 PM53 °FPartly sunny.9 mph48%30.13 "Hg10 mi
2:55 PM55 °FBroken clouds.8 mph45%30.13 "Hg10 mi
1:55 PM56 °FBroken clouds.6 mph44%30.14 "Hg10 mi
12:55 PM53 °FPartly sunny.No wind48%30.16 "Hg10 mi
11:55 AM51 °FPartly sunny.No wind52%30.20 "Hg10 mi
10:55 AM46 °FPartly sunny.3 mph58%30.26 "Hg10 mi
9:55 AM40 °FBroken clouds.No wind68%30.27 "Hg10 mi
8:55 AM35 °FMostly cloudy.No wind78%30.30 "Hg10 mi
7:55 AM32 °FScattered clouds.No wind82%30.29 "Hg10 mi
6:55 AM31 °FPassing clouds.No wind85%30.28 "Hg10 mi
5:55 AM30 °FPassing clouds.No wind89%30.27 "Hg10 mi
Weather by CustomWeather, © 2014

See weather overviewHow to use our weather pages